Погода Старая Русса

Погода Старая Русса : погода сейчас, прогноз погоды и архив. Всё, что Вы хотите узнать о погоде Старая Русса!

Хотите узнать прогноз погоды Старая Русса? Тогда Вам сюда: Погода Старая Русса

Поиск расширенной информации на нашем сайте:

Другие новости

Новости СМИ2

Главная страница сайта

Новости сайта

02.10.2013

Напоминаем, что на нашем новом сайте вы можете получить высокодетализированные прогнозы погоды по пунктам России, СНГ и мира (включающие важные для авиации метеовеличины, такие как направление и скорость ветра, видимость, явления погоды, количество и форма облачности, нижняя и верхняя граница облачности), а также ознакомиться с разнообразными материалами по авиационной метеорологии и подборкой полезных ссылок на эту тему.

Сайт Метеоцентр.Азия посвящён разработке технологий оптимизации авиаметеорологического обслуживания, включая проектирование и перспективное создание нескольких автоматизированных авиаметеорологических систем:
- система выпуска высокодетальных прогностических карт явлений погоды для нижнего воздушного пространства по России и ближнему зарубежью;
- система верификации прогнозов TAF (выпускаемых синоптиками официальных АМСГ РФ и ближнего зарубежья) и AUTOTAF (выпускаемых сайтом Метеоцентр.Азия) - выявление ошибок, онлайн-сопоставление с фактической погодой METAR, автоматическое внесение коррективов в прогнозы при резком отклонении фактической погоды от прогноза, подсчёт оправдываемости прогнозов по элементам и в целом;
- система обработки, анализа и отображения авиаметеорологической информации для применения провайдерами метеорологической информации.

Рекомендуем: Смотрите подробности грузоперевозки по европе у нас.

Погода Старая Русса - сегодня

Время (UTC), дата Ветер
(°,м/с) 
Видим.   Явления Облачность Т
(°С)
Тd
(°С)
f(%) Тe
(°С)
Pmin
(гПа)
dP
(гПа)
Po
(мм)
O2
(г/м3)
Тmin Tmax R s Состояние
почвы
09 26.04.17 260 (З) 6{11}  20000 м    10/3 1000 м средняя 
[Cu med, cong|As trans]
+7.2 -4.2 44 +5  1004.1  0.9  751  295           
12 26.04.17 240 (ЮЗ) 7-12{12}  20000 м    8/3 600 м верхняя 
[Cu med, cong|Cs]
+9.8 -5.3 34 +8  1004.9  0.8  751  293           
15 26.04.17 260 (З) 7-11{14}  20000 м  в посл. час ливневой дождь  6/3 300 м кучево-дожд., средняя 
[Cb cap|Ac cuf]
+8.4 -2.1 48 +6  1005.8  0.8  752  294      0.1     
18 26.04.17 250 (З) 4{13}  20000 м  {ливн. осадки}  1/1 600 м кучево-дожд. 
[Cb cap]
+6 -1.9 57 +4  1007.4  1.6  753  297    +9.9  0.0     
21 26.04.17 270 (З) 20000 м    ясно 
+3.6 -1.9 67 +2  1009.9  2.4  755  301           
00 27.04.17 230 (ЮЗ) 20000 м    ясно 
+1 -3.6 71 1011.1  1.1  756  304           
03 27.04.17 220 (ЮЗ) 20000 м    3/0 средняя, верхняя 
[Ac trans|Ci]
+0.3 -3.6 75 1011.7  0.6  756  305  -0         
06 27.04.17 240 (ЮЗ) 20000 м    8/0 средняя, верхняя 
[Ac trans|Ci]
+5.9 -2.6 54 +6  1012.7  757  299  -0         
09 27.04.17 250 (З) 20000 м    9/4 300 м верхняя 
[Cu med, cong|Cs]
+7.6 -4.4 42 +6  1013.1  0.5  758  297           
12 27.04.17 250 (З) 20000 м    9/5 600 м верхняя 
[Cu med, cong|Cs]
+9.2 -5 36 +9  1013.4  0.2  758  296           
15 27.04.17 270 (З) 20000 м    10/4 300 м верхняя 
[Cu hum|Cs]
+10.5 -5.8 31 +10  1013.8  0.5  758  295           
18 27.04.17 300 (СЗ) 20000 м    6/3 600 м верхняя 
[Sc|Ci fib]
+6.5 -5.3 43 +6  1015  1.1  759  299    +10.5       
21 27.04.17 220 (ЮЗ) 20000 м    ясно 
-0.5 -2.7 85 1016.4  1.4  760  307           
00 28.04.17 тихо ()   20000 м    ясно 
+0.2 -2.4 83 1017.5  1.1  761  307           
03 28.04.17 270 (З) 20000 м    3/0 средняя 
[Ac trans]
-0.7 -2.9 85 1019.2  1.7  762  308  -1.1         
06 28.04.17 340 (С) 20000 м    3/0 средняя 
[Ac trans]
+7.9 -2.1 49 +9  1020.6  1.4  763  299  -1.1         
09 28.04.17 070 (В) 20000 м    9/4 600 м верхняя 
[Cu med, cong|Cs]
+10.2 -4.9 34 +10  1021.7  1.2  764  297           
12 28.04.17 040 (СВ) 20000 м    10/4 300 м верхняя 
[Cu med, cong|Cs]
+11.2 -4.7 32 +11  1021.8  0.1  764  296           
15 28.04.17 040 (СВ) 20000 м    10/0 средняя 
[As op]
+10.4 -5.1 33 +11  1020.9  0.1  763  297           
18 28.04.17 130 (ЮВ) 10 км  слаб. дождь  10/10 240 м 
[Frnb|Ns]
+9.7 -2.7 42 +9  1020.9  763  297    +11.4  0.0     
21 28.04.17 080 (В) 10 км  слаб. дождь  10/10 240 м 
[Frnb|Ns]
+5.9 +3 82 +5  1020.5  -0.4  763  301           
00 29.04.17 080 (В) 4{11}  10 км  слаб. дождь  10/10 300 м 
[Frnb|Ns]
+4.5 +2.7 88 +3  1018.7  -1.8  762  302           
03 29.04.17 090 (В) 6-11{14}  10 км  слаб. дождь  10/10 240 м 
[Frnb|Ns]
+3.2 +1.4 88 1016.6  -2.2  760  303  +3.2       
06 29.04.17 090 (В) 4{13}  10 км  слаб. дождь  10/10 240 м 
[Frnb|Ns]
+3 +1.4 89 +1  1014.5  -2.1  759  302  +2.4    10     
09 29.04.17 100 (В) 5{10}  20000 м  {дождь}  10/9 240 м средняя 
[Frnb|As op]
+5 +2.9 86 +3  1012.7  -1.8  757  299           
Время (UTC), дата Ветер
(°,м/с) 
Видим.   Явления Облачность Т
(°С)
Тd
(°С)
f(%) Тe
(°С)
Pmin
(гПа)
dP
(гПа)
Po
(мм)
O2
(г/м3)
Тmin Tmax R s Состояние
почвы

Для получения пояснительной информации подведите курсор к названию столбца.

ПОГОДА Старая Русса - архив

Всё, что Вы хотите узнать о погоде Старая Русса - удобно и подробно!

Выберите нужную дату (начиная с 1 января 2015* года) и нажмите кнопку "Найти".
Будут отображены архивные сводки погоды по пункту Старая Русса, начиная с указанной даты.


Отображать данные в формате CSV (для использования в таблицах Excel)


Внимание! Наш архив погоды предназначен исключительно для личного некоммерческого использования в познавательных целях. Если Вам необходимы официальные справки о состоянии погоды (для производственных, юридических, коммерческих и т.п. целей), обращайтесь в органы Росгидромета.

*Примечание: данная дата относится к архиву по метеостанциям СССР (Россия, СНГ, Балтия).
Архив по метеостанциям Зарубежной Европы и Азии (кроме Китая) хранится 10 дней, по другим регионам земного шара (Китай, Африка, Америка, Австралия, Океания) - 1 день.

Старая Русса - район местоположения метеостанции


Название, широта, долгота, высота метеостанции:
Старая Русса 58°ш. 31.3°д. 25 м над ур. моря [Российская Федерация]

Дополнительная информация

В oтличие oт бoльшинства пoгoдных сайтoв мы публикуем пoдрoбную метеoинфoрмацию в детальнoм прoфессиoнальнoм фoрмате.

Характеристики температуры и влажнoсти вoздуха измеряются на высoте 2 м в тени вдали oт зданий и деревьев.
Скoрoсть ветра измеряется на высoте 10 м (на урoвне рoста челoвека скoрoсть ветра ниже в 1.5-2 раза). Если метеoстанция нахoдится в гoрoде или в лесу, тo скoрoсть ветра занижена на 2-4 м/с пo сравнению с oткрытым местoм. Скoрoсть ветра над акватoриями крупных рек и oзёр, а также на вершинах хoлмoв на 2-5 м/с выше, чем в oбычных услoвиях.
Атмoсфернoе давление в разных тoчках местнoсти мoжет значительнo oтличаться oт давления на метеoстанции, в зависимoсти oт услoвий рельефа (при пoдъёме на 10 м давление пoнижается примернo на 1 мм рт.ст.).